OBJECT A, 66913

Orbit data source: Space-Track

You're viewing an Uncataloged Satellite

Recently launched and/or uncataloged satellites may have evolving metadata. Metadata may include but not limited to: Owner, Maufacturer, Bus, Motor, and Mission.

OBJECT A, 66913 is a satellite owned by Xingyun (CN) in LEO that was launched on Fri, 05 Dec 2025 UTC via a KUAIZHOU-1A launch vehicle from the Jiuquan Satellite Launch Center, China (JSC). Unknown objects in Earth's orbit typically refer to objects detected orbiting the Earth but have not yet been identified or cataloged. These objects could be anything from previously untracked satellites, spent rocket stages, debris from satellite collisions, or even natural meteoroids temporarily captured by Earth's gravity.

Loading next visibility...
Identifier
66913, 2025-284A
Orbit
LEO
Country
Flag of CNCN / PRC
Related business
Manufacturer
IMI/CAS
Mission
Operational Commercial Communications
Bus & Motor
Unknown
Mass
~220 kg wet, ~220 kg dry
Launch date (UTC)
2025-12-05 (6 months ago)
Launch vehicle
KUAIZHOU-1A
Launch site
Jiuquan Satellite Launch Center, China (JSC)
Object type
Unknown
Shape & HBR
Box + 2 Pan, 1.1 m
Radar Cross Section
0.223 m², Large (>1 m²)

Expand to show TLE details & history
Last TLE update: 11 hours ago

TLE from 11 hours ago
0 OBJECT A
1 66913U 25284A   26171.40368497  .00000107  00000-0  69445-4 0  9994
2 66913  80.4064 285.9864 0010919 225.2805 134.7468 13.97342636 27933
Epoch: 2026-06-20T09:41Z
TLE epoch observation values (Epoch: 2026-06-20T09:41:18.381Z)
Latitude
-0°
Longitude
-127.95899°
Altitude
911.468 km
Speed
7.393 km/s
True Right ascension
19h 03m 56s
True Declination
0° 00' 00"
Sunlit
Object was in full shadow at epoch
Visualization orbit readout
Latitude
Unknown
Longitude
Unknown
Altitude
Unknown
Speed
Unknown
Apparent Right ascension
Unknown
Apparent Declination
Unknown
Sunlit
N/A
Visualization observer readout
Local Sidereal Time
07:13:39
Azimuth
Unknown
Elevation
Unknown
Doppler factor
Unknown
Orbital elements
Apogee altitude
908.192 km
Perigee altitude
892.297 km
Semi-major axis
7,278.382 km
Eccentricity
0.00109
Inclination
80.4064°
RAAN
285.9864°
Arg. of periapsis
225.2805°
True anomaly
134.83558°
Mean anomaly
134.7468°
Eccentric anomaly
134.7912°
Mean motion
3.49535 °/min
Orbital period
102.99 mins
BSTAR
0.000069445
Loading maneuver chart data...
Computing Atmospheric mass density...
Loading historical data...
Loading historical data...
Loading historical data...
Loading historical data...
Loading historical data...
Loading historical data...
Loading historical data...
Other satellites on launch #284 in the year 2025 (2025-12-05 UTC)

Documentation

Showing up to 5 results
|